Weather History for Valladolid Airport, Spain

Change the Weather History Date:

Saturday, August 31, 2013

  Actual Average Record
Temperature  
Mean Temperature 63 °F -  
Max Temperature 78 °F - - ()
Min Temperature 48 °F - - ()
Degree Days  
Heating Degree Days 2    
Growing Degree Days 13 (Base 50)    
Moisture  
Dew Point 42 °F    
Average Humidity 46    
Maximum Humidity 93    
Minimum Humidity 20    
Precipitation  
Precipitation 0.00 in - - ()
Sea Level Pressure  
Sea Level Pressure 30.26 in    
Wind  
Wind Speed 8 mph ()    
Max Wind Speed 15 mph    
Max Gust Speed -    
T = Trace of Precipitation, MM = Missing Value Source: Averaged Metar Reports

Daily Weather History Graph

Daily Weather History Graph

Search for Another Location

Airport:

Trip Planner

Search our weather history database for the weather conditions in past years. The results will help you decide how hot, cold, wet, or windy it might be!

Date:

Astronomy

Aug. 31, 2013 Rise Set
Actual Time 7:44 AM CEST 8:54 PM CEST
Civil Twilight 7:15 AM CEST 9:22 PM CEST
Nautical Twilight 6:41 AM CEST 9:56 PM CEST
Astronomical Twilight 6:05 AM CEST 10:32 PM CEST
Moon 2:58 AM CEST (8/31) 5:45 PM CEST (8/31)
Length of Visible Light 14h 07m
Length of Day
13h 09m
Waning Crescent, 23% of the Moon is Illuminated
Aug 31
Waning Crescent
Sep 5
New
Sep 12
First Quarter
Sep 19
Full
Sep 27
Last Quarter

Hourly Weather History & Observations

Time (CEST) Temp. Dew Point Humidity Pressure Visibility Wind Dir Wind Speed Gust Speed Precip Events Conditions
7:00 AM 48.2 °F 44.6 °F 87% 30.27 in - Variable 2.3 mph - N/A   Clear
7:30 AM 48.2 °F 46.4 °F 93% 30.27 in - NE 9.2 mph - N/A   Clear
8:00 AM 50.0 °F 46.4 °F 87% 30.27 in - ENE 8.1 mph - N/A   Clear
8:30 AM 50.0 °F 46.4 °F 87% 30.27 in - NE 8.1 mph - N/A   Clear
9:00 AM 53.6 °F 48.2 °F 82% 30.27 in - NE 10.4 mph - N/A   Clear
9:30 AM 53.6 °F 48.2 °F 82% 30.27 in - ENE 10.4 mph - N/A   Clear
10:00 AM 57.2 °F 48.2 °F 72% 30.27 in - ENE 12.7 mph - N/A   Clear
10:30 AM 59.0 °F 48.2 °F 67% 30.27 in - ENE 15.0 mph - N/A   Clear
11:00 AM 60.8 °F 48.2 °F 63% 30.30 in - ENE 15.0 mph - N/A   Clear
11:30 AM 62.6 °F 46.4 °F 55% 30.30 in - ENE 11.5 mph - N/A   Clear
12:00 PM 64.4 °F 46.4 °F 52% 30.30 in - ENE 9.2 mph - N/A   Clear
12:30 PM 66.2 °F 44.6 °F 46% 30.30 in - ENE 6.9 mph - N/A   Clear
1:00 PM 69.8 °F 41.0 °F 35% 30.30 in - ENE 10.4 mph - N/A   Clear
1:30 PM 69.8 °F 42.8 °F 38% 30.27 in - ENE 9.2 mph - N/A   Clear
2:00 PM 73.4 °F 39.2 °F 29% 30.27 in - NE 10.4 mph - N/A   Clear
2:30 PM 75.2 °F 39.2 °F 27% 30.27 in - NE 9.2 mph - N/A   Clear
3:00 PM 77.0 °F 37.4 °F 24% 30.27 in - NE 8.1 mph - N/A   Clear
3:30 PM 77.0 °F 35.6 °F 22% 30.24 in - East 8.1 mph - N/A   Clear
4:00 PM 77.0 °F 37.4 °F 24% 30.24 in - ENE 8.1 mph - N/A   Clear
4:30 PM 78.8 °F 35.6 °F 21% 30.24 in - NE 10.4 mph - N/A   Clear
5:00 PM 78.8 °F 37.4 °F 23% 30.24 in - NE 8.1 mph - N/A   Clear
5:30 PM 78.8 °F 33.8 °F 20% 30.24 in - NE 6.9 mph - N/A   Clear
6:00 PM 78.8 °F 33.8 °F 20% 30.24 in - ENE 9.2 mph - N/A   Clear
6:30 PM 78.8 °F 37.4 °F 23% 30.24 in - NE 9.2 mph - N/A   Clear
7:00 PM 77.0 °F 37.4 °F 24% 30.21 in - NE 13.8 mph - N/A   Clear
7:30 PM 77.0 °F 37.4 °F 24% 30.21 in - NE 11.5 mph - N/A   Clear
8:00 PM 75.2 °F 37.4 °F 25% 30.24 in - NE 11.5 mph - N/A   Clear
8:30 PM 73.4 °F 41.0 °F 31% 30.24 in - NE 11.5 mph - N/A   Clear
9:00 PM 69.8 °F 42.8 °F 38% 30.24 in - ENE 8.1 mph - N/A   Clear
9:30 PM 64.4 °F 44.6 °F 49% 30.27 in - ENE 6.9 mph - N/A   Clear